THOR ABLESTAR DEB, 320

Orbit data source: Space-Track

THOR ABLESTAR DEB, 320 is space debris in LEO originally from a launch on Thu, 29 Jun 1961 UTC launched from the Air Force Eastern Test Range (AFETR). Debris objects in space refer to the collection of defunct objects orbiting the Earth. Examples of debris include non-operational satellites, rocket bodies, and fragments generated from explosions, collisions, or faulty payload assembly.

Loading next visibility...
Identifier
320, 1961-015CW
Orbit
LEO
Country
Flag of USUS
Related business
Manufacturer
Unknown
Mission
Spacecraft
Bus & Motor
Unknown
Mass
Unknown
Launch date (UTC)
1961-06-29 (64 years ago)
Launch vehicle
Unknown
Launch site
Air Force Eastern Test Range (AFETR)
Object type
Payload
Rocket body
Debris
Shape & HBR
Unknown
Radar Cross Section
Medium (>0.1 m² and <1 m²)

Expand to show TLE details & history
Last TLE update: 22 hours ago

TLE from 22 hours ago
0 THOR ABLESTAR DEB
1 00320U 61015CW  25260.99573759  .00000461  00000-0  19387-3 0  9999
2 00320  66.9065  31.3789 0139826 234.8842 123.9086 14.29274910329451
Epoch: 2025-09-17T23:53Z
TLE epoch observation values (Epoch: 2025-09-17T23:53:51.727Z)
Latitude
-0.00007°
Longitude
35.74966°
Altitude
853.186 km
Speed
7.397 km/s
True Right ascension
02h 05m 30s
True Declination
0° 00' 00"
Sunlit
Object was in full shadow at epoch
Visualization orbit readout
Latitude
Unknown
Longitude
Unknown
Altitude
Unknown
Speed
Unknown
Apparent Right ascension
Unknown
Apparent Declination
Unknown
Sunlit
N/A
Visualization observer readout
Local Sidereal Time
15:03:59
Azimuth
Unknown
Elevation
Unknown
Doppler factor
Unknown
Orbital elements
Apogee altitude
892.771 km
Perigee altitude
692.242 km
Semi-major axis
7,170.644 km
Eccentricity
0.01398
Inclination
66.9065°
RAAN
31.3789°
Arg. of periapsis
234.8842°
True anomaly
125.22542°
Mean anomaly
123.9086°
Eccentric anomaly
124.5683°
Mean motion
3.57442 °/min
Orbital period
100.72 mins
BSTAR
0.00019387
Loading maneuver chart data...
Computing Atmospheric mass density...

Documentation

Showing up to 5 results
|